This is the latest recevied weather packets stored in our database for station/object Sauldorf. If no packets are shown the sender has not sent any weather packets the latest 10 day(s).
| Time | Temp. | Humidity | Pressure | Rain* | Wind** | Luminosity | Snow |
|---|---|---|---|---|---|---|---|
| 1777692731 | 5.56° C | 72% | 1022 hPa | 0 mm | - | - | - |
| 1777690931 | 6.11° C | 71% | 1022.1 hPa | 0 mm | - | - | - |
| 1777689134 | 6.67° C | 68% | 1022.4 hPa | 0 mm | - | - | - |
| 1777687332 | 7.22° C | 66% | 1022.4 hPa | 0 mm | - | - | - |
| 1777685531 | 8.33° C | 63% | 1022.5 hPa | 0 mm | - | - | - |
| 1777683731 | 8.89° C | 60% | 1022.6 hPa | 0 mm | - | - | - |
| 1777681929 | 10° C | 58% | 1022.8 hPa | 0 mm | - | - | - |
| 1777680129 | 10° C | 57% | 1022.9 hPa | 0 mm | - | - | - |
| 1777678330 | 10.56° C | 57% | 1023 hPa | 0 mm | - | - | - |
| 1777676530 | 10.56° C | 55% | 1023.2 hPa | 0 mm | - | - | - |
| 1777674730 | 11.11° C | 52% | 1023.2 hPa | 0 mm | - | - | - |
| 1777672931 | 11.67° C | 50% | 1023.3 hPa | 0 mm | - | - | - |
| 1777671130 | 12.78° C | 47% | 1023.3 hPa | 0 mm | - | - | - |
| 1777669330 | 13.89° C | 44% | 1023.3 hPa | 0 mm | - | - | - |
| 1777667529 | 14.44° C | 43% | 1023.4 hPa | 0 mm | - | - | - |
| 1777665732 | 15° C | 42% | 1023.3 hPa | 0 mm | - | - | - |
| 1777663929 | 15.56° C | 40% | 1023.1 hPa | 0 mm | - | - | - |
| 1777662130 | 16.67° C | 37% | 1023 hPa | 0 mm | - | - | - |
| 1777660330 | 17.78° C | 34% | 1022.8 hPa | 0 mm | - | - | - |
| 1777658531 | 19.44° C | 31% | 1022.7 hPa | 0 mm | - | - | - |
| 1777656731 | 20° C | 29% | 1022.6 hPa | 0 mm | - | - | - |
| 1777654930 | 20.56° C | 27% | 1022.6 hPa | 0 mm | - | - | - |
| 1777653130 | 21.11° C | 26% | 1022.8 hPa | 0 mm | - | - | - |
| 1777651330 | 21.11° C | 26% | 1022.9 hPa | 0 mm | - | - | - |
| 1777649530 | 21.11° C | 27% | 1023.2 hPa | 0 mm | - | - | - |
* Rain since midnight (hover to see other rain measurements)
** Current wind speed in m/s (hover to see current wind gust speed)